This demonstration page uses our WeatherBlox Daily Observations layout. Learn more.

Left ArrowRight Arrow

39.01783, -85.05884

Hourly Observations for May 12, 2022

Temp ( °F °C ) Dew Point ( °F °C ) Humidity (%) Winds ( mph kmh ) Pressure ( in mb ) Visibility ( mi km ) Precip ( " mm )
12:52 am 00:52 Mostly Clear 69 20.6 45 7.2 42 42 E 5 7 30.12 1020 10 16 0.00 0.00
1:52 am 01:52 Mostly Clear 68 20 46 7.8 45 45 E 3 6 30.11 1020 10 16 0.00 0.00
2:52 am 02:52 Clear 65 18.3 46 7.8 51 51 E 6 9 30.12 1020 10 16 0.00 0.00
3:52 am 03:52 Mostly Clear 63 17.2 47 8.3 56 56 E 8 13 30.11 1020 10 16 0.00 0.00
4:52 am 04:52 Mostly Clear 64 17.8 45 7.2 50 50 NE 3 6 30.12 1020 10 16 0.00 0.00
5:52 am 05:52 Mostly Clear 65 18.3 45 7.2 49 49 E 5 7 30.14 1021 10 16 0.00 0.00
6:52 am 06:52 Partly Cloudy 62 16.7 46 7.8 56 56 E 8 13 30.15 1021 10 16 0.00 0.00
7:52 am 07:52 Partly Cloudy 65 18.3 49 9.4 56 56 E 6 9 30.16 1021 10 16 0.00 0.00
8:52 am 08:52 Partly Cloudy 68 20 48 8.9 49 49 ESE 7 11 30.15 1021 10 16 0.00 0.00
9:52 am 09:52 Partly Cloudy 72 22.2 50 10 46 46 ESE 10 17 30.14 1021 10 16 0.00 0.00
10:52 am 10:52 Partly Cloudy 75 23.9 50 10 41 41 SE 10 17 30.15 1021 10 16 0.00 0.00
11:52 am 11:52 Partly Cloudy 79 26.1 53 11.7 41 41 E 7 11 30.15 1021 10 16 0.00 0.00
12:52 pm 12:52 Partly Cloudy 81 27.2 49 9.4 33 33 E 14 22 30.14 1021 10 16 0.00 0.00
1:52 pm 13:52 Partly Cloudy 82 27.8 52 11.1 35 35 ESE 8 13 30.11 1020 10 16 0.00 0.00
2:52 pm 14:52 Partly Cloudy 83 28.3 53 11.7 36 36 VRB 7 11 30.10 1019 10 16 0.00 0.00
3:52 pm 15:52 Mostly Cloudy 84 28.9 53 11.7 34 34 VRB 7 11 30.08 1019 10 16 0.00 0.00
4:52 pm 16:52 Mostly Cloudy 84 28.9 54 12.2 36 36 VRB 7 11 30.06 1018 10 16 0.00 0.00
5:52 pm 17:52 Mostly Cloudy 83 28.3 51 10.6 33 33 E 12 19 30.05 1018 10 16 0.00 0.00
6:52 pm 18:52 Cloudy 81 27.2 54 12.2 39 39 ESE 10 17 30.04 1017 10 16 0.00 0.00
7:52 pm 19:52 Mostly Cloudy 79 26.1 52 11.1 39 39 ESE 9 15 30.04 1017 10 16 0.00 0.00
8:52 pm 20:52 Mostly Cloudy 76 24.4 52 11.1 43 43 E 6 9 30.04 1017 10 16 0.00 0.00
9:52 pm 21:52 Mostly Cloudy 75 23.9 53 11.7 46 46 E 6 9 30.04 1017 10 16 0.00 0.00
10:52 pm 22:52 Mostly Cloudy 72 22.2 53 11.7 52 52 ESE 9 15 30.04 1017 10 16 0.00 0.00
10:56 pm 22:56 Mostly Cloudy 72 22.2 53 11.7 52 52 ESE 9 15 30.04 1017 10 16 0.00 0.00
11:52 pm 23:52 Mostly Cloudy 71 21.7 52 11.1 51 51 E 8 13 30.04 1017 10 16 0.00 0.00

Powered by AerisWeather